Ilulissat

KL  EN  DA
ASIAQ
Weather Now GREENLAND SURVEY
Updated [WGT/WGST] Temperature [°C] Wind [m/s] Air pressure [hPa] Relative humidity [%] Precipitation [mm]
Present Wind chill Speed Max
18.04 00:00-13,9-24,17,5 ⇐8,91015640,0
17.04 23:00-13,3-22,66,4 ⇐8,11015640,0
17.04 22:00-13,3-22,96,9 ⇐9,41014620,0
17.04 21:00-13,3-22,05,6 ⇖7,11014580,0
17.04 20:00-13,9-22,95,7 ⇖6,71014590,0
17.04 19:00-13,3-21,54,9 ⇐5,91013550,0
17.04 18:00-13,3-21,24,6 ⇖5,61013580,0
17.04 17:00-12,8-20,24,2 ⇖5,51012530,0
17.04 16:00-13,3-21,04,4 ⇖5,21012550,0
17.04 15:00-13,3-20,84,2 ⇖5,31011520,0
17.04 14:00-13,3-20,64,0 ⇑5,11011520,0
17.04 13:00-13,9-21,84,5 ⇐6,31011550,0
17.04 12:00-14,4-22,74,8 ⇖6,51010570,0
17.04 11:00-14,4-23,96,2 ⇖8,11010610,0
17.04 10:00-15,0-24,56,0 ⇖7,71010680,0
17.04 09:00-15,0-24,45,9 ⇖7,11010700,0
17.04 08:00-15,6-26,07,0 ⇐8,41009730,0
17.04 07:00-15,6-25,76,6 ⇐8,21009730,0
17.04 06:00-16,1-26,36,6 ⇖7,61008730,0
17.04 05:00-15,6-25,86,8 ⇖8,11008730,0
17.04 04:00-15,6-25,66,5 ⇖7,71007750,0
17.04 03:00-15,6-25,56,3 ⇖7,51007740,0
17.04 02:00-15,0-24,35,7 ⇐7,61007740,0
17.04 01:00-15,0-22,74,0 ⇖5,11007750,0
17.04 00:00-15,0-23,85,1 ⇖6,11007780,0
Position: (69.2402777777,-51.06611111)

[Back]